Location: Newark
(34.6283°N, 36.0776°E)
Time: 06:34:24
(UTC+00:00)

S-56A Canister/Altair - Pass Details

Date: 21 October 2019
Orbit: 634 x 2498 km, 38.9° (Epoch: 18 November)

Event Time Altitude Azimuth Distance (km) Brightness Sun altitude
Rises 03:41:31 0° 287° (WNW) 4,071 - -1.7°
Exits shadow 03:41:57 - 287° (WNW) 3,934 10.5 -1.6°
Reaches altitude 10° 03:43:55 10° 289° (WNW) 3,312 10.1 -1.2°
Maximum altitude 03:52:37 83° 18° (NNE) 1,746 9.4 0.5°
Drops below altitude 10° 04:05:46 10° 106° (ESE) 4,824 14.4 3.1°
Sets 04:09:59 0° 108° (ESE) 5,995 15.4 4.0°
